Date,TemperatureHighF,TemperatureAvgF,TemperatureLowF,DewpointHighF,DewpointAvgF,DewpointLowF,HumidityHigh,HumidityAvg,HumidityLow,PressureMaxIn,PressureMinIn,WindSpeedMaxMPH,WindSpeedAvgMPH,GustSpeedMaxMPH,PrecipitationSumIn
2013-1-1,27,22,17,20,14,10,80,71,59,30.18,30.04,17,7,19,0.00
2013-1-2,26,23,18,21,17,13,83,80,76,30.20,30.09,18,6,18,0.00
2013-1-3,29,25,19,26,20,12,87,81,74,30.17,30.06,21,9,21,0.00
2013-1-4,32,28,25,24,22,21,84,78,71,30.19,30.00,30,13,30,0.00
2013-1-5,36,28,18,31,24,15,94,85,70,30.29,30.01,17,7,17,0.00
2013-1-6,36,34,32,33,30,27,93,87,78,30.27,29.90,20,10,20,0.07
2013-1-7,38,32,29,27,25,23,86,75,60,30.36,30.13,26,10,26,0.00
2013-1-8,40,32,27,29,26,23,84,76,64,30.25,30.14,14,7,15,0.00
2013-1-9,46,39,31,35,30,26,85,70,49,30.42,30.00,32,15,32,0.01
2013-1-10,42,33,23,33,28,21,94,80,61,30.59,30.17,17,5,17,0.09
2013-1-11,55,45,36,51,42,33,96,91,81,30.16,29.74,22,10,22,0.53
2013-1-12,59,52,47,50,46,37,92,81,65,29.92,29.79,20,8,20,0.00
2013-1-13,47,37,28,39,35,26,96,93,67,30.04,29.77,21,6,21,0.46
2013-1-14,28,22,15,26,18,13,92,83,72,30.46,30.04,26,8,26,0.00
2013-1-15,30,21,12,23,16,9,94,83,64,30.47,30.19,9,2,9,0.06
2013-1-16,36,27,15,30,20,13,93,76,47,30.18,29.81,29,9,29,0.00
2013-1-17,34,28,17,30,20,7,87,73,56,30.33,29.96,31,11,31,0.00
2013-1-18,36,25,11,24,17,8,91,72,52,30.45,29.94,34,12,35,0.00
2013-1-19,46,42,36,36,32,24,76,67,60,29.94,29.52,29,16,29,0.00
2013-1-20,44,22,14,36,11,4,77,64,46,30.19,29.51,45,19,45,0.00
2013-1-21,16,12,5,12,5,-3,86,71,59,30.17,29.99,26,10,26,0.00
2013-1-22,10,5,-1,3,-3,-9,80,69,55,30.33,30.14,25,10,25,0.00
2013-1-23,18,10,2,12,5,-3,88,79,66,30.33,30.11,17,6,17,0.00
2013-1-24,17,10,5,12,5,0,89,77,60,30.64,30.17,15,4,15,0.00
2013-1-25,22,17,11,16,12,4,88,81,73,30.55,30.05,17,6,17,0.00
2013-1-26,28,21,13,19,16,10,89,81,62,30.47,30.07,16,6,16,0.04
2013-1-27,29,22,11,27,17,8,92,80,60,30.50,30.13,21,7,21,0.00
2013-1-28,45,37,29,44,36,27,97,95,91,30.17,29.85,16,10,16,0.37
2013-1-29,58,52,37,56,50,36,98,95,89,29.87,29.27,14,8,29,0.40
2013-1-30,52,46,32,51,45,28,98,94,85,29.33,29.08,31,8,31,0.56
2013-1-31,32,22,16,29,16,12,90,79,67,29.90,29.22,43,18,43,0.00
2013-2-1,18,15,11,12,9,4,88,78,64,30.28,29.90,23,12,23,0.00
2013-2-2,21,15,3,17,10,0,88,82,75,30.23,30.01,21,8,21,0.00
2013-2-3,21,11,0,16,7,-4,90,81,70,30.05,29.89,22,6,22,0.00
2013-2-4,23,18,12,17,13,7,88,82,75,30.06,29.92,9,3,9,0.01
2013-2-5,28,20,5,26,16,2,94,85,66,29.99,29.82,20,6,20,0.00
2013-2-6,32,23,10,22,16,7,92,74,55,30.31,29.99,18,4,18,0.01
2013-2-7,38,31,26,28,23,18,90,74,66,30.30,29.91,18,7,18,0.01
2013-2-8,29,25,16,28,22,14,95,88,73,30.38,29.84,28,12,28,0.00
2013-2-9,34,19,0,22,12,-4,93,76,46,30.49,30.30,14,4,14,0.18
2013-2-10,45,34,21,43,28,18,94,81,59,30.31,29.54,21,10,29,0.05
2013-2-11,44,36,32,42,30,27,92,77,67,29.84,29.53,37,21,37,0.02
2013-2-12,32,30,28,27,24,22,81,78,74,30.04,29.84,28,12,28,0.00
2013-2-13,40,31,27,28,25,22,88,79,63,29.94,29.74,17,6,17,0.00
2013-2-14,41,35,30,35,31,26,92,86,78,29.84,29.66,32,11,32,0.01
2013-2-15,33,26,22,28,18,13,83,71,59,30.14,29.83,27,11,27,0.00
2013-2-16,25,20,16,20,14,9,89,79,62,30.12,30.00,16,5,18,0.00
2013-2-17,23,15,6,15,7,3,88,72,53,30.24,30.09,18,6,18,0.00
2013-2-18,47,31,14,38,21,7,74,68,57,30.24,29.58,26,12,26,0.01
2013-2-19,48,30,19,41,25,12,92,82,69,29.91,29.38,31,20,31,0.18
2013-2-20,23,20,16,16,13,9,82,73,65,30.27,29.91,28,16,28,0.00
2013-2-21,24,20,18,20,14,12,90,78,67,30.42,30.26,26,8,26,0.00
2013-2-22,34,27,22,32,25,18,95,90,83,30.31,29.89,20,9,20,0.00
2013-2-23,34,30,25,32,25,21,92,81,67,29.92,29.87,26,10,26,0.01
2013-2-24,37,28,19,29,24,17,92,84,64,30.17,29.90,17,6,17,0.04
2013-2-25,43,30,17,28,22,14,93,75,49,30.26,30.12,10,2,10,0.01
2013-2-26,37,31,26,32,27,22,96,84,72,30.15,29.55,22,10,22,0.15
2013-2-27,36,35,33,35,33,32,96,95,91,29.57,29.48,14,4,14,0.30
2013-2-28,34,33,29,33,30,24,97,90,81,29.99,29.55,25,12,25,0.09
2013-3-1,29,26,24,25,22,20,87,84,81,30.14,29.99,23,12,23,0.00
2013-3-2,26,24,21,21,20,18,90,83,76,30.12,30.08,17,8,17,0.00
2013-3-3,27,22,15,19,16,12,89,78,68,30.09,30.03,18,7,18,0.00
2013-3-4,34,22,10,19,14,8,91,75,48,30.19,30.08,10,3,10,0.00
2013-3-5,36,26,14,26,21,11,91,81,66,30.17,29.89,20,9,20,0.00
2013-3-6,38,32,26,31,28,23,93,84,71,30.23,29.92,17,6,17,0.00
2013-3-7,34,31,22,30,26,19,94,84,65,30.42,30.21,14,4,14,0.02
2013-3-8,44,30,16,30,23,14,94,78,56,30.53,30.42,10,2,10,0.00
2013-3-9,46,36,26,34,29,24,92,76,57,30.43,30.03,17,7,17,0.00
2013-3-10,60,51,40,45,39,33,76,64,50,30.03,29.77,26,9,26,0.00
2013-3-11,58,50,38,49,44,34,95,82,53,29.79,29.43,26,12,26,0.32
2013-3-12,38,34,31,34,30,25,92,83,69,29.91,29.64,21,12,21,0.01
2013-3-13,34,29,24,28,21,15,93,73,49,30.20,29.87,31,14,31,0.01
2013-3-14,40,30,22,23,20,15,81,65,46,30.28,30.08,20,8,20,0.00
2013-3-15,39,35,31,34,30,20,95,82,62,30.08,29.86,18,7,18,0.01
2013-3-16,34,28,25,32,25,21,95,87,71,30.05,29.81,16,6,16,0.01
2013-3-17,31,25,19,24,16,11,88,69,47,30.31,30.04,20,8,20,0.02
2013-3-18,35,29,18,33,25,13,95,84,75,30.23,29.57,24,10,24,0.07
2013-3-19,35,26,23,32,21,16,89,80,68,29.94,29.60,30,16,30,0.00
2013-3-20,28,24,17,18,15,12,80,70,59,29.96,29.90,24,12,25,0.00
2013-3-21,31,24,16,26,20,11,89,81,71,29.95,29.87,22,10,22,0.00
2013-3-22,38,30,25,26,22,18,84,72,60,30.04,29.94,20,9,20,0.02
2013-3-23,35,31,24,26,24,21,89,77,67,30.13,30.04,10,4,10,0.00
2013-3-24,38,29,20,29,24,18,94,81,59,30.08,29.70,24,7,24,0.00
2013-3-25,38,35,31,30,27,25,79,74,65,29.93,29.63,24,10,24,0.00
2013-3-26,42,36,32,34,30,27,87,79,65,30.12,29.93,23,7,23,0.00
2013-3-27,45,38,30,32,28,26,85,69,51,30.20,30.12,26,12,26,0.00
2013-3-28,51,39,29,32,27,23,80,64,41,30.28,30.20,21,8,21,0.00
2013-3-29,52,41,27,29,25,22,82,54,33,30.29,30.20,14,5,14,0.00
2013-3-30,56,42,25,31,24,17,91,55,23,30.22,29.91,21,6,21,0.00
2013-3-31,56,47,40,42,36,31,87,67,47,29.91,29.60,26,10,26,0.00
2013-4-1,40,31,26,35,18,13,89,60,42,30.10,29.68,30,13,30,0.00
2013-4-2,41,31,22,20,16,12,85,57,35,30.27,30.10,26,10,26,0.00
2013-4-3,42,30,21,19,16,12,81,57,35,30.45,30.26,20,6,23,0.00
2013-4-4,56,42,29,24,19,15,65,42,22,30.37,29.94,21,8,23,0.00
2013-4-5,46,40,31,33,24,19,84,55,35,30.21,29.94,20,7,21,0.00
2013-4-6,49,40,28,25,22,18,79,53,34,30.25,29.75,26,11,26,0.00
2013-4-7,57,47,32,47,36,25,89,68,37,30.04,29.57,32,14,32,0.00
2013-4-8,61,43,29,54,39,27,95,87,66,30.04,29.69,32,9,32,0.23
2013-4-9,51,44,40,45,42,39,96,93,77,30.09,29.89,18,6,18,0.85
2013-4-10,42,40,37,41,38,34,96,95,89,30.08,29.85,26,8,26,0.48
2013-4-11,38,36,35,36,35,34,95,93,89,30.02,29.67,25,12,26,0.58
2013-4-12,43,38,34,39,36,33,96,91,76,29.75,29.55,24,8,24,0.29
2013-4-13,42,38,36,38,32,26,95,78,60,29.99,29.75,28,13,28,0.04
2013-4-14,48,40,31,38,32,28,90,75,61,30.12,29.93,16,6,16,0.01
2013-4-15,68,56,42,56,46,35,90,70,57,29.94,29.84,28,12,28,0.02
2013-4-16,61,52,45,56,43,35,94,74,46,30.23,29.83,21,9,21,0.02
2013-4-17,59,46,38,44,37,32,94,71,46,30.36,29.97,30,9,30,0.44
2013-4-18,73,56,45,64,53,42,95,89,74,30.02,29.54,31,11,31,0.47
2013-4-19,59,44,33,58,40,30,96,83,65,29.72,29.30,35,17,35,0.77
2013-4-20,37,33,27,32,24,18,93,68,56,30.46,29.72,32,13,32,0.01
2013-4-21,50,37,22,30,26,21,95,67,38,30.65,30.46,16,5,16,0.00
2013-4-22,62,48,34,36,31,26,88,56,28,30.48,30.19,15,6,15,0.00
2013-4-23,68,56,45,54,43,34,93,63,43,30.19,29.81,38,11,38,0.28
2013-4-24,49,39,35,48,35,29,95,87,63,30.12,29.76,18,10,20,0.38
2013-4-25,51,42,37,41,32,28,90,68,44,30.34,30.08,26,11,26,0.05
2013-4-26,60,47,30,39,33,28,93,60,37,30.46,30.31,21,8,21,0.00
2013-4-27,71,57,43,46,38,31,79,53,25,30.34,30.09,18,7,18,0.00
2013-4-28,62,54,50,53,46,35,96,74,49,30.09,29.83,13,4,13,0.14
2013-4-29,70,60,53,56,53,52,98,81,55,29.92,29.82,12,4,12,0.01
2013-4-30,72,63,55,59,55,52,93,76,56,30.05,29.90,25,10,25,0.17
2013-5-1,81,70,57,61,55,53,86,63,40,30.20,30.03,20,8,20,0.00
2013-5-2,78,68,57,57,52,46,76,58,38,30.22,30.10,20,8,20,0.00
2013-5-3,77,67,57,58,46,35,59,47,26,30.11,30.03,22,8,22,0.00
2013-5-4,72,64,53,50,43,36,68,49,28,30.10,30.04,18,8,18,0.00
2013-5-5,73,61,46,50,40,29,82,50,22,30.09,30.01,22,6,22,0.00
2013-5-6,77,60,40,52,44,38,95,59,34,30.06,29.95,13,4,13,0.00
2013-5-7,77,63,45,57,49,41,89,63,39,30.05,29.97,16,4,16,0.00
2013-5-8,80,65,48,54,49,44,96,62,32,30.01,29.90,15,4,15,0.00
2013-5-9,80,66,50,58,52,47,96,64,33,29.95,29.86,15,2,15,0.00
2013-5-10,68,51,41,58,48,39,96,90,59,29.88,29.73,22,8,22,0.32
2013-5-11,62,47,38,48,42,34,96,84,53,29.88,29.70,27,10,27,0.03
2013-5-12,47,40,32,35,31,26,86,71,56,30.09,29.85,30,13,30,0.00
2013-5-13,54,42,29,33,28,24,88,60,34,30.18,30.09,20,6,20,0.00
2013-5-14,76,56,43,54,40,31,73,56,41,30.10,29.69,20,7,20,0.00
2013-5-15,79,69,55,59,51,44,82,56,35,29.77,29.54,28,10,28,0.01
2013-5-16,79,63,47,52,46,40,93,58,29,30.03,29.76,15,5,15,0.00
2013-5-17,67,57,44,49,44,39,87,63,46,30.15,30.03,12,5,12,0.00
2013-5-18,80,66,53,55,48,44,79,55,32,30.15,30.02,15,5,15,0.00
2013-5-19,86,71,52,65,56,46,87,61,43,30.03,29.84,13,3,13,0.00
2013-5-20,89,74,64,72,65,60,96,76,45,29.90,29.71,28,8,28,0.29
2013-5-21,83,74,64,67,64,60,95,73,50,29.77,29.67,23,7,23,0.10
2013-5-22,79,69,62,66,63,60,93,84,57,29.70,29.57,27,8,27,0.15
2013-5-23,62,51,42,60,49,41,96,94,92,30.16,29.64,24,9,24,0.30
2013-5-24,55,45,38,43,38,34,96,77,51,30.38,30.16,17,7,17,0.00
2013-5-25,62,49,34,44,38,33,97,69,40,30.42,30.29,14,4,14,0.00
2013-5-26,67,53,35,46,39,34,97,64,35,30.36,30.24,14,3,14,0.00
2013-5-27,68,53,39,50,42,30,93,71,35,30.26,30.01,18,4,18,0.01
2013-5-28,73,61,52,70,59,50,98,95,87,30.01,29.76,54,4,13,1.24
2013-5-29,81,72,64,68,66,62,96,81,62,29.95,29.73,25,7,25,0.37
2013-5-30,84,75,68,76,68,62,92,79,60,30.01,29.91,29,7,29,0.21
2013-5-31,81,74,69,71,67,66,93,79,65,29.95,29.80,25,10,25,0.46
2013-6-1,79,71,65,68,65,62,95,82,63,29.83,29.64,22,8,22,0.15
2013-6-2,68,62,51,64,56,42,89,79,71,29.98,29.60,23,11,23,0.00
2013-6-3,66,54,39,49,43,37,95,69,45,30.08,29.98,13,5,13,0.00
2013-6-4,70,57,44,52,46,43,97,69,40,30.20,30.08,12,2,12,0.00
2013-6-5,70,60,49,54,47,41,86,64,42,30.18,29.99,12,3,12,0.00
2013-6-6,66,59,55,56,50,46,82,73,64,30.02,29.86,15,6,15,0.01
2013-6-7,62,56,50,54,51,48,94,85,74,29.92,29.87,12,5,12,0.00
2013-6-8,72,62,52,58,54,49,95,77,51,30.06,29.90,7,1,7,0.00
2013-6-9,75,66,55,62,56,52,92,71,56,30.10,29.93,12,4,12,0.00
2013-6-10,75,66,60,68,62,52,97,89,60,29.94,29.71,9,2,9,0.86
2013-6-11,79,70,62,68,64,61,98,85,65,29.86,29.75,17,5,17,0.00
2013-6-12,76,68,58,69,64,57,98,88,72,29.90,29.63,13,2,13,0.04
2013-6-13,75,68,62,66,60,56,97,77,52,29.91,29.57,21,9,21,0.48
2013-6-14,74,64,55,58,54,48,91,70,42,30.07,29.91,16,6,16,0.01
2013-6-15,76,67,55,65,59,51,90,76,56,30.06,29.88,18,5,18,0.00
2013-6-16,80,71,64,68,62,55,95,76,50,29.88,29.72,20,9,20,0.31
2013-6-17,83,69,59,65,59,56,93,73,47,29.93,29.78,21,4,28,0.01
2013-6-18,69,61,53,58,50,42,94,70,41,30.08,29.88,20,6,20,0.01
2013-6-19,75,60,42,56,48,40,97,67,40,30.18,30.07,9,2,9,0.00
2013-6-20,82,72,54,61,55,50,88,58,38,30.19,30.12,12,4,12,0.00
2013-6-21,84,75,60,68,62,53,84,65,50,30.18,30.01,16,6,16,0.00
2013-6-22,88,78,71,73,67,59,88,70,52,30.05,29.93,16,6,16,0.00
2013-6-23,90,80,71,72,69,66,94,72,48,30.00,29.92,20,7,20,0.00
2013-6-24,87,77,68,72,69,66,96,77,55,30.00,29.87,36,7,36,0.99
2013-6-25,80,72,67,72,68,64,97,88,71,29.93,29.79,14,6,14,0.18
2013-6-26,84,74,65,72,68,63,97,82,62,29.84,29.70,18,4,18,0.00
2013-6-27,83,71,65,75,68,64,97,90,69,29.73,29.60,18,2,18,0.89
2013-6-28,76,68,65,68,65,62,98,91,71,29.62,29.50,24,4,24,0.39
2013-6-29,72,67,62,64,62,58,98,84,69,29.72,29.52,14,4,14,0.00
2013-6-30,78,68,60,64,59,47,94,74,55,29.95,29.72,15,4,15,0.00
2013-7-1,69,62,54,59,54,47,88,74,57,30.08,29.95,16,4,16,0.04
2013-7-2,75,64,57,64,58,52,90,80,66,30.06,30.01,12,4,12,0.00
2013-7-3,83,74,58,71,66,57,96,76,57,30.08,30.01,13,4,13,0.00
2013-7-4,81,73,65,68,64,59,96,77,51,30.09,30.03,18,5,18,0.00
2013-7-5,84,74,64,68,64,61,93,73,49,30.08,30.00,9,2,9,0.00
2013-7-6,85,75,67,72,68,65,96,80,58,30.07,29.95,15,4,15,0.02
2013-7-7,82,74,69,73,69,68,96,87,66,30.00,29.92,12,4,12,0.48
2013-7-8,82,75,70,75,70,67,94,87,77,29.99,29.93,18,5,18,0.06
2013-7-9,88,75,68,75,70,67,98,87,60,29.95,29.82,24,4,24,0.30
2013-7-10,86,77,65,75,69,57,96,77,56,29.91,29.71,22,9,22,0.00
2013-7-11,76,67,55,60,57,52,97,73,46,30.06,29.91,16,4,16,0.00
2013-7-12,82,67,52,65,59,50,98,77,49,30.16,30.06,9,2,9,0.00
2013-7-13,84,72,57,66,60,55,98,71,41,30.19,30.13,9,2,9,0.00
2013-7-14,90,77,62,74,68,61,98,76,53,30.23,30.18,9,1,9,0.00
2013-7-15,90,79,68,78,73,66,98,83,61,30.26,30.18,12,2,12,0.02
2013-7-16,92,82,73,80,75,72,97,81,59,30.27,30.18,12,3,12,0.01
2013-7-17,93,83,74,79,75,70,91,76,57,30.24,30.09,16,4,16,0.00
2013-7-18,93,83,73,78,74,70,94,75,54,30.12,29.89,16,6,16,0.00
2013-7-19,92,84,77,76,73,65,87,71,52,29.90,29.65,28,11,28,0.00
2013-7-20,84,76,67,72,65,56,95,72,42,29.91,29.66,17,4,17,0.14
2013-7-21,82,70,59,64,59,55,89,70,48,29.99,29.90,8,2,8,0.00
2013-7-22,83,73,65,71,65,59,91,76,57,29.94,29.72,13,4,13,0.00
2013-7-23,79,70,61,73,64,51,96,82,62,29.86,29.62,23,9,23,0.84
2013-7-24,71,62,53,56,52,48,91,69,52,30.04,29.86,18,5,18,0.00
2013-7-25,77,63,49,58,53,48,97,74,44,30.11,30.03,8,2,8,0.00
2013-7-26,79,69,59,64,59,55,89,73,52,30.08,29.89,14,6,14,0.04
2013-7-27,76,66,56,68,62,50,95,87,66,29.88,29.70,14,5,14,0.71
2013-7-28,67,58,51,57,53,48,91,83,66,29.96,29.80,20,8,20,0.10
2013-7-29,70,61,56,59,56,54,93,83,65,30.16,29.94,13,6,13,0.04
2013-7-30,78,65,51,62,57,49,98,77,49,30.22,30.10,6,1,10,0.00
2013-7-31,67,65,62,66,63,59,97,94,90,30.11,29.87,12,2,12,0.47
2013-8-1,76,67,61,66,61,56,97,83,53,29.89,29.84,16,5,16,0.02
2013-8-2,74,66,56,64,60,54,94,82,65,29.90,29.81,20,6,20,0.00
2013-8-3,76,67,56,64,58,54,98,75,51,30.04,29.87,18,5,18,0.00
2013-8-4,72,62,54,58,54,51,92,77,55,30.16,30.04,16,4,16,0.00
2013-8-5,70,62,54,60,55,51,93,77,55,30.10,29.95,14,3,14,0.00
2013-8-6,77,68,64,69,64,57,94,85,72,29.95,29.86,21,6,21,0.09
2013-8-7,83,73,63,72,67,61,97,84,65,29.88,29.77,24,6,24,0.55
2013-8-8,76,69,61,69,61,56,93,77,53,29.99,29.87,12,5,12,0.00
2013-8-9,80,68,54,63,59,53,98,74,47,29.98,29.91,13,3,13,0.00
2013-8-10,76,66,56,61,58,53,97,75,49,30.12,29.98,15,3,15,0.00
2013-8-11,77,68,60,65,60,57,93,76,55,30.10,30.01,12,3,12,0.00
2013-8-12,70,65,59,68,64,58,97,94,84,30.04,29.82,12,3,14,0.09
2013-8-13,67,61,53,65,52,45,97,74,51,30.04,29.83,21,10,21,0.01
2013-8-14,71,58,48,54,50,45,93,75,49,30.16,30.04,17,5,17,0.00
2013-8-15,73,61,48,58,52,47,96,76,49,30.16,30.07,14,4,14,0.00
2013-8-16,79,64,50,60,55,49,97,74,42,30.19,30.09,7,1,9,0.00
2013-8-17,80,65,50,62,56,49,98,75,39,30.25,30.17,13,1,13,0.00
2013-8-18,81,67,52,64,58,51,98,76,44,30.22,30.08,8,2,8,0.00
2013-8-19,82,68,54,66,59,53,98,75,42,30.10,30.00,12,3,12,0.00
2013-8-20,85,71,58,68,63,57,97,78,50,30.11,30.03,14,4,14,0.00
2013-8-21,86,75,65,72,68,63,95,78,56,30.09,29.94,20,6,20,0.00
2013-8-22,82,75,68,69,67,62,91,78,61,30.02,29.88,22,6,22,0.00
2013-8-23,81,67,53,62,58,52,97,74,44,30.20,30.02,13,3,13,0.00
2013-8-24,83,66,51,63,56,50,98,75,40,30.31,30.19,9,2,9,0.00
2013-8-25,87,73,59,68,63,58,95,71,50,30.27,30.10,17,7,17,0.01
2013-8-26,86,77,69,74,68,62,86,74,63,30.11,29.93,17,8,17,0.00
2013-8-27,84,75,69,76,72,68,97,90,75,29.96,29.78,30,3,30,1.04
2013-8-28,82,75,67,74,71,65,98,90,73,29.99,29.75,13,4,13,0.01
2013-8-29,87,73,63,73,67,62,98,83,53,30.06,29.97,7,1,7,0.00
2013-8-30,86,77,68,73,70,64,96,80,59,29.97,29.69,21,7,21,0.00
2013-8-31,77,72,65,72,67,63,95,85,69,29.83,29.72,12,4,12,0.00
2013-9-1,80,69,61,72,66,60,98,92,76,29.83,29.69,12,1,12,0.03
2013-9-2,72,66,57,70,61,54,97,84,67,29.90,29.70,17,8,17,0.01
2013-9-3,74,63,56,58,54,52,90,74,50,30.00,29.89,17,7,17,0.00
2013-9-4,80,67,55,65,60,53,95,78,56,30.06,29.97,18,7,18,0.00
2013-9-5,70,59,48,62,50,45,94,75,46,30.25,30.06,15,5,15,0.00
2013-9-6,75,60,45,56,51,44,97,74,44,30.28,30.05,12,4,12,0.00
2013-9-7,77,69,60,70,62,50,90,77,61,30.05,29.86,14,5,14,0.04
2013-9-8,72,66,53,68,58,49,92,76,53,30.08,29.90,17,5,17,0.00
2013-9-9,78,65,50,71,61,48,96,87,76,30.05,29.85,13,3,14,0.01
2013-9-10,94,82,72,73,70,66,90,68,43,29.95,29.83,20,9,21,0.00
2013-9-11,90,78,70,74,69,65,91,74,55,29.97,29.87,18,5,18,0.35
2013-9-12,76,67,57,66,60,46,97,80,50,29.94,29.82,28,6,28,0.19
2013-9-13,58,53,41,47,44,38,94,74,50,30.14,29.94,21,9,21,0.00
2013-9-14,69,52,37,48,42,36,98,74,39,30.20,30.08,12,3,12,0.00
2013-9-15,62,55,48,54,50,45,96,83,61,30.12,30.05,12,3,12,0.11
2013-9-16,61,54,43,54,49,40,96,82,57,30.39,30.12,18,7,18,0.00
2013-9-17,68,50,34,55,44,33,98,80,53,30.42,30.23,12,2,12,0.00
2013-9-18,76,60,42,60,52,40,97,77,48,30.23,30.02,15,4,15,0.00
2013-9-19,80,69,60,69,64,57,93,83,68,30.03,29.86,15,6,15,0.00
2013-9-20,78,71,67,72,68,66,96,89,76,29.86,29.69,20,8,20,0.06
2013-9-21,68,61,54,66,55,44,96,81,53,29.86,29.64,28,8,28,0.04
2013-9-22,55,50,42,45,43,40,94,76,61,30.10,29.86,17,6,17,0.00
2013-9-23,60,48,36,49,42,34,98,83,60,30.21,30.09,8,1,8,0.00
2013-9-24,69,52,36,54,45,35,98,80,50,30.17,30.00,9,1,9,0.00
2013-9-25,72,53,38,57,47,37,98,82,44,30.02,29.95,12,1,12,0.00
2013-9-26,77,57,40,58,49,39,98,79,39,30.14,30.01,9,1,9,0.00
2013-9-27,77,58,42,57,50,41,98,79,45,30.23,30.14,10,1,10,0.00
2013-9-28,77,63,47,62,55,45,98,77,45,30.18,29.99,16,5,16,0.01
2013-9-29,65,61,58,61,58,55,96,88,73,30.00,29.91,14,4,14,0.14
2013-9-30,71,61,51,58,55,50,98,82,54,30.01,29.91,12,2,12,0.00
2013-10-1,75,63,51,64,58,49,97,86,66,29.98,29.89,25,8,25,0.00
2013-10-2,78,65,49,61,52,38,97,69,24,30.07,29.91,14,4,14,0.00
2013-10-3,80,66,48,68,60,46,95,82,65,30.05,29.89,18,4,18,0.00
2013-10-4,79,70,65,69,66,63,96,87,70,30.00,29.89,13,4,13,0.12
2013-10-5,73,68,65,69,66,64,98,94,87,30.01,29.82,12,3,12,0.37
2013-10-6,70,65,54,68,63,52,97,92,82,29.82,29.61,20,7,20,0.61
2013-10-7,60,52,46,53,48,43,96,87,66,30.10,29.65,21,7,21,0.10
2013-10-8,68,54,39,51,45,38,98,75,47,30.28,30.10,13,4,13,0.00
2013-10-9,71,58,44,56,48,42,98,72,45,30.32,30.21,13,3,13,0.00
2013-10-10,72,58,42,56,47,41,98,70,38,30.23,30.12,11,2,11,0.00
2013-10-11,73,54,38,54,44,37,98,74,34,30.16,30.07,8,1,8,0.00
2013-10-12,76,61,44,64,54,43,98,80,47,30.09,30.01,15,4,15,0.00
2013-10-13,66,58,44,59,48,39,93,72,39,30.34,30.06,16,5,16,0.00
2013-10-14,63,49,36,47,41,35,97,78,48,30.42,30.28,12,2,12,0.00
2013-10-15,65,52,36,60,49,35,98,90,74,30.29,29.80,18,5,18,0.13
2013-10-16,62,55,51,60,51,46,95,86,73,29.88,29.77,20,9,20,0.01
2013-10-17,52,50,46,51,48,44,97,95,90,29.88,29.73,20,5,20,0.27
2013-10-18,63,51,43,46,43,40,97,77,45,29.90,29.81,22,8,22,0.01
2013-10-19,51,45,41,44,42,38,95,87,68,29.87,29.71,20,7,20,0.17
2013-10-20,57,48,41,44,41,39,93,77,53,29.90,29.79,22,7,22,0.02
2013-10-21,56,51,42,49,44,36,91,78,65,29.83,29.78,25,11,25,0.05
2013-10-22,48,41,35,37,32,28,81,70,54,29.90,29.82,21,8,21,0.00
2013-10-23,47,40,32,35,32,27,93,77,48,29.93,29.82,18,6,18,0.00
2013-10-24,46,37,30,36,32,29,95,82,60,30.17,29.92,22,7,22,0.00
2013-10-25,47,38,31,37,31,29,95,77,55,30.33,30.06,23,8,23,0.00
2013-10-26,52,44,40,40,34,29,93,70,53,30.06,29.73,31,13,31,0.14
2013-10-27,52,43,40,38,35,31,82,73,53,30.05,29.91,17,5,17,0.00
2013-10-28,48,41,36,39,34,31,91,76,67,30.43,30.04,15,5,15,0.00
2013-10-29,47,41,38,37,33,30,81,73,64,30.46,30.24,10,4,10,0.00
2013-10-30,65,49,34,51,42,32,97,78,55,30.25,29.94,14,4,14,0.03
2013-10-31,62,59,53,60,58,50,97,95,90,29.95,29.09,23,12,23,1.10
2013-11-1,61,50,45,60,45,41,94,84,73,29.64,29.05,37,13,37,0.10
2013-11-2,46,42,33,45,40,32,97,93,86,30.12,29.63,20,7,20,0.16
2013-11-3,44,36,27,38,32,26,97,87,68,30.46,30.11,10,2,10,0.01
2013-11-4,49,41,32,37,32,27,89,71,44,30.49,30.29,23,9,23,0.00
2013-11-5,55,51,45,48,44,37,85,76,71,30.34,30.14,20,8,20,0.00
2013-11-6,56,52,41,53,48,39,94,84,65,30.14,29.73,29,14,29,0.33
2013-11-7,43,39,34,39,32,28,93,77,56,30.13,29.97,21,10,21,0.03
2013-11-8,45,36,30,33,28,26,90,74,49,30.28,30.11,16,5,16,0.01
2013-11-9,54,47,36,42,36,30,79,68,58,30.18,29.78,31,14,31,0.00
2013-11-10,47,42,35,37,32,28,82,70,57,30.26,29.89,29,12,29,0.00
2013-11-11,43,36,27,39,31,22,94,82,71,30.33,30.03,26,9,26,0.15
2013-11-12,34,27,23,23,19,17,86,72,56,30.56,30.32,23,9,23,0.01
2013-11-13,41,31,20,26,20,14,89,66,38,30.56,30.14,32,12,32,0.01
2013-11-14,53,42,33,31,24,19,59,49,39,30.15,29.93,27,14,27,0.00
2013-11-15,52,45,39,32,28,25,63,52,40,30.05,29.96,19,9,19,0.00
2013-11-16,57,48,39,53,42,30,92,81,63,30.08,29.76,30,11,30,0.00
2013-11-17,63,59,46,60,56,41,95,90,78,29.77,29.15,50,17,50,0.84
2013-11-18,46,40,35,42,32,25,83,72,66,30.12,29.40,43,19,43,0.00
2013-11-19,41,34,27,26,24,22,83,67,51,30.42,30.12,20,6,20,0.00
2013-11-20,45,35,24,34,28,22,95,77,49,30.46,30.25,20,5,20,0.00
2013-11-21,49,45,41,44,38,29,95,77,62,30.29,30.17,20,7,20,0.08
2013-11-22,45,38,27,44,36,24,97,90,76,30.36,30.13,22,8,22,0.08
2013-11-23,28,24,17,25,17,8,90,74,52,30.53,30.27,32,14,32,0.00
2013-11-24,25,19,15,16,12,9,84,73,53,30.62,30.42,21,10,21,0.00
2013-11-25,33,27,21,27,16,8,88,64,43,30.41,30.07,26,15,26,0.00
2013-11-26,33,31,28,29,28,25,92,87,83,30.10,29.95,17,8,17,0.00
2013-11-27,28,23,18,25,15,10,90,73,57,30.21,29.95,27,11,27,0.00
2013-11-28,28,22,15,22,18,11,89,83,73,30.46,30.20,12,3,12,0.00
2013-11-29,33,25,18,24,20,16,93,82,58,30.70,30.46,8,2,8,0.00
2013-11-30,45,36,26,31,27,22,85,70,55,30.58,30.10,18,9,18,0.00
2013-12-1,42,39,36,34,32,30,92,77,65,30.10,30.01,13,6,13,0.00
2013-12-2,39,32,26,30,26,22,91,77,58,29.98,29.91,5,1,8,0.01
2013-12-3,38,33,22,36,30,20,94,89,78,29.94,29.85,12,5,12,0.05
2013-12-4,56,46,38,53,44,36,96,93,87,29.90,29.58,22,7,22,0.10
2013-12-5,59,42,30,55,35,22,91,77,65,30.13,29.57,35,14,35,0.01
2013-12-6,30,24,18,22,16,11,80,73,68,30.50,30.12,16,7,17,0.00
2013-12-7,24,19,12,14,10,8,86,69,57,30.64,30.50,20,7,20,0.00
2013-12-8,27,19,10,25,14,7,91,82,65,30.63,30.01,14,5,18,0.00
2013-12-9,30,27,19,28,23,12,94,84,73,30.09,29.88,30,13,30,0.00
2013-12-10,22,17,11,18,11,4,88,75,49,30.20,29.95,31,10,31,0.00
2013-12-11,19,17,4,15,12,0,86,83,78,30.47,30.19,14,4,14,0.00
2013-12-12,21,15,5,16,9,1,86,77,59,30.46,30.18,23,12,23,0.00
2013-12-13,26,24,21,22,18,16,87,80,71,30.32,30.16,20,7,20,0.00
2013-12-14,22,20,18,20,16,14,92,87,79,30.32,29.91,20,10,20,0.00
2013-12-15,24,19,13,21,16,6,93,89,74,30.04,29.83,21,7,21,0.00
2013-12-16,24,14,4,13,8,1,89,76,54,30.22,30.03,13,4,13,0.08
2013-12-17,29,23,15,25,20,12,91,88,81,30.05,29.88,20,7,20,0.00
2013-12-18,30,27,24,25,22,15,93,81,65,30.11,29.87,20,9,23,0.00
2013-12-19,39,34,28,34,28,18,94,80,63,30.01,29.85,20,6,20,0.09
2013-12-20,34,34,33,33,32,31,97,96,94,29.93,29.74,10,4,10,0.21
2013-12-21,33,33,32,32,32,31,97,96,95,29.88,29.70,12,3,12,0.34
2013-12-22,33,32,28,32,31,26,96,96,95,29.98,29.59,0,0,0,0.31
2013-12-23,28,25,20,26,23,17,96,92,88,30.31,29.98,0,0,0,0.01
2013-12-24,20,12,4,17,9,2,92,87,80,30.58,30.31,0,0,0,0.00
2013-12-25,24,19,9,22,16,6,93,89,86,30.55,30.13,0,0,0,0.00
2013-12-26,26,24,22,25,22,18,94,90,81,30.29,30.05,0,0,0,0.00
2013-12-27,38,31,25,33,29,23,95,91,80,30.34,30.03,22,2,22,0.02
2013-12-28,49,41,34,36,33,30,88,75,58,30.11,29.86,26,10,26,0.05
2013-12-29,41,34,19,33,27,12,93,78,67,30.02,29.69,22,9,22,0.00
2013-12-30,19,17,14,14,10,6,82,71,64,30.30,30.02,18,6,18,0.00
2013-12-31,18,16,12,15,11,6,89,81,67,30.36,30.07,22,10,22,0.00
2014-1-1,15,12,10,12,7,2,89,78,64,30.45,30.30,14,6,14,0.00
2014-1-2,15,11,2,11,8,-3,88,85,76,30.33,30.16,28,11,28,0.00